Weather History for Nellis AFB, NV

Change the Weather History Date:

Sunday, February 3, 2013

  Actual Average Record
Temperature  
Mean Temperature 57 °F -  
Max Temperature 67 °F 58 °F 71 °F (2009)
Min Temperature 47 °F 36 °F 22 °F (2011)
Degree Days  
Heating Degree Days 8    
Growing Degree Days 7 (Base 50)    
Moisture  
Dew Point 32 °F    
Average Humidity 41    
Maximum Humidity 59    
Minimum Humidity 26    
Precipitation  
Precipitation 0.00 in - - ()
Sea Level Pressure  
Sea Level Pressure 30.08 in    
Wind  
Wind Speed 3 mph (ENE)    
Max Wind Speed 8 mph    
Max Gust Speed -    
Visibility 10 miles    
Events      
Averages and records for this station are not official NWS values.
T = Trace of Precipitation, MM = Missing Value Source: NWS Daily Summary

Daily Weather History Graph

Daily Weather History Graph

Search for Another Location

Airport:

Trip Planner

Search our weather history database for the weather conditions in past years. The results will help you decide how hot, cold, wet, or windy it might be!

Date:

Astronomy

Feb. 03, 2013 Rise Set
Actual Time 6:39 AM PST 5:09 PM PST
Civil Twilight 6:12 AM PST 5:36 PM PST
Nautical Twilight 5:41 AM PST 6:06 PM PST
Astronomical Twilight 5:11 AM PST 6:36 PM PST
Moon 12:11 AM PST (2/3) 10:50 AM PST (2/3)
Length of Visible Light 11h 23m
Length of Day
10h 29m
Waning Gibbous, 47% of the Moon is Illuminated
Feb 3
Waning Gibbous
Feb 9
New
Feb 17
First Quarter
Feb 25
Full
Mar 4
Last Quarter

Hourly Weather History & Observations

Time (PST) Temp. Dew Point Humidity Pressure Visibility Wind Dir Wind Speed Gust Speed Precip Events Conditions
12:58 AM 52.9 °F 29.7 °F 41% 30.16 in 10.0 mi NE 5.8 mph - N/A   Scattered Clouds
1:58 AM 51.3 °F 34.2 °F 52% 30.14 in 10.0 mi South 2.3 mph - N/A   Scattered Clouds
2:58 AM 50.2 °F 35.4 °F 57% 30.12 in 10.0 mi Variable 2.3 mph - N/A   Clear
3:58 AM 50.2 °F 34.0 °F 54% 30.11 in 10.0 mi ESE 2.3 mph - N/A   Clear
4:58 AM 53.2 °F 31.3 °F 43% 30.12 in 10.0 mi WSW 3.5 mph - N/A   Clear
5:58 AM 51.3 °F 33.1 °F 50% 30.13 in 10.0 mi NNW 3.5 mph - N/A   Clear
6:58 AM 50.9 °F 32.7 °F 50% 30.15 in 10.0 mi NNE 5.8 mph - N/A   Clear
7:58 AM 53.4 °F 31.1 °F 43% 30.15 in 10.0 mi Calm Calm - N/A   Mostly Cloudy
8:58 AM 53.4 °F 33.6 °F 47% 30.14 in 10.0 mi ENE 4.6 mph - N/A   Scattered Clouds
9:58 AM 58.1 °F 30.4 °F 35% 30.13 in 10.0 mi Calm Calm - N/A   Partly Cloudy
10:58 AM 63.1 °F 28.0 °F 27% 30.11 in 10.0 mi Calm Calm - N/A   Partly Cloudy
11:58 AM 63.5 °F 29.3 °F 28% 30.08 in 10.0 mi South 2.3 mph - N/A   Partly Cloudy
12:58 PM 64.9 °F 30.6 °F 28% 30.04 in 10.0 mi SE 3.5 mph - N/A   Clear
1:58 PM 66.0 °F 30.7 °F 27% 30.01 in 10.0 mi NE 2.3 mph - N/A   Clear
2:58 PM 66.9 °F 31.3 °F 27% 30.01 in 10.0 mi NE 1.2 mph - N/A   Clear
3:58 PM 67.1 °F 30.6 °F 26% 30.00 in 10.0 mi East 3.5 mph - N/A   Clear
4:58 PM 66.6 °F 30.2 °F 26% 30.01 in 10.0 mi East 2.3 mph - N/A   Clear
5:58 PM 60.4 °F 33.3 °F 36% 30.01 in 10.0 mi NE 4.6 mph - N/A   Clear
6:58 PM 58.3 °F 32.7 °F 38% 30.03 in 10.0 mi North 4.6 mph - N/A   Clear
7:58 PM 53.4 °F 33.3 °F 46% 30.04 in 10.0 mi NE 2.3 mph - N/A   Clear
8:58 PM 51.4 °F 34.2 °F 52% 30.04 in 10.0 mi NE 4.6 mph - N/A   Clear
9:58 PM 52.9 °F 33.4 °F 48% 30.04 in 10.0 mi NW 2.3 mph - N/A   Clear
10:58 PM 47.1 °F 33.4 °F 59% 30.07 in 10.0 mi ENE 5.8 mph - N/A   Clear
11:58 PM 51.8 °F 31.1 °F 45% 30.06 in 10.0 mi ENE 8.1 mph - N/A   Clear